Weather Roundup
Issued by NWS

Home | Current Version | Previous Version | Text Only | Print | Product List | Glossary On
Versions: 1 2 3 4 5 6 7 8 9 10 11 12 13 14 15 16 17 18 19 20 21 22 23 24 25 26 27 28 29 30 31 32 33 34 35 36 37 38 39 40 41 42 43 44 45 46 47 48 49 50
827
NZUS93 KARX 120159
HRRWXR

CURRENT HOURLY OBSERVATIONS ACROSS
MUCH OF THE UPPER MISSISSIPPI VALLEY
NATIONAL WEATHER SERVICE LA CROSSE WI
800 PM CST THU FEB 11 2016


...SOUTHEAST MINNESOTA...


CITY           SKY/WX    TMP DP  RH WIND       PRES   REMARKS
ROCHESTER      CLOUDY    11   3  70 SW8       30.21F WCI  -1
ROCHESTER/MAYO CLOUDY    13   3  64 SW5       30.22F WCI   5
WINONA         CLOUDY    16   3  57 W3        30.28S
AUSTIN         CLOUDY    10   5  79 SW7       30.22F WCI   0
ALBERT LEA     CLEAR     10   3  72 S3        30.21F
DODGE CENTER   CLOUDY    12   3  67 SW7       30.21S WCI   2
PRESTON        CLOUDY    10   1  67 W6        30.23S WCI   0
OWATONNA       CLOUDY    14   5  67 SW9       30.22S WCI   2
FARIBAULT        N/A     14   7  73 S3        30.23F
$$

...ELSEWHERE IN MINNESOTA...


CITY           SKY/WX    TMP DP  RH WIND       PRES   REMARKS
MINNEAPOLIS    LGT SNOW  15   8  73 SW7       30.24F WCI   5
INTNL FALLS    PTCLDY     6  -1  73 W7        30.13S WCI  -6
DULUTH         MOCLDY    11  -1  58 W12       30.11F WCI  -3
RED WING       CLOUDY    18   7  62 W2        30.24F
REDWOOD FALLS  CLOUDY    16  12  84 SW5       30.23S WCI   9
MANKATO        CLOUDY    14   5  67 SW7       30.23S WCI   4
WORTHINGTON    CLOUDY    10   7  85 SW7       30.18F WCI   0
FAIRMONT       MOCLDY    10   5  79 S6        30.20S WCI   1
$$

...SOUTHWEST WISCONSIN...


CITY           SKY/WX    TMP DP  RH WIND       PRES   REMARKS
LA CROSSE      CLOUDY    15   0  51 W9        30.27S WCI   3
PRAIRIE DU CHI CLOUDY    14   1  55 CALM      30.29F
BOSCOBEL       CLOUDY    13   0  56 SW5       30.28F WCI   5
LONE ROCK      NOT AVBL
PLATTEVILLE    CLOUDY    13   1  61 W6        30.26S WCI   3
FORT MC COY    CLOUDY    16   1  51 W3        30.25F
VIROQUA        CLOUDY    13   1  60 SW7       30.21F WCI   3
WIS DELLS      CLOUDY    15  -1  50 SW7       30.22F WCI   5
$$

...ELSEWHERE IN WISCONSIN...


CITY           SKY/WX    TMP DP  RH WIND       PRES   REMARKS
MILWAUKEE      PTCLDY    15   0  51 W5        30.26S WCI   8
MADISON        CLOUDY    14   0  53 SW5       30.24F WCI   6
GREEN BAY      CLOUDY    15   0  51 SW7       30.20F WCI   5
EAU CLAIRE     CLOUDY    14   0  53 W9        30.22F WCI   2
BLACK RVR FLS  CLOUDY    16  -1  45 W8        30.24S WCI   6
MEDFORD        CLOUDY    11  -4  51 W7        30.14F WCI   0
WAUSAU         CLOUDY    13   0  56 W7        30.15F WCI   3
WIS RAPIDS     CLOUDY    15  -3  44 W6        30.21S WCI   6
MARSHFIELD     CLOUDY    14  -3  47 W8        30.16F WCI   3
RICE LAKE      CLOUDY    13   1  58 SW5       30.21F WCI   6
$$

...NORTHEAST IOWA...


CITY           SKY/WX    TMP DP  RH WIND       PRES   REMARKS
WATERLOO       CLOUDY    13   6  74 CALM      30.27S
DUBUQUE        PTCLDY    14   4  64 N5        30.25F WCI   6
DECORAH        CLOUDY    10   1  67 SW3       30.23F
MASON CITY     CLOUDY    10   4  76 S5        30.24F WCI   2
CHARLES CITY   CLOUDY    10   1  67 S3        30.26S
OELWEIN        CLOUDY    14   3  62 CALM      30.26S
$$

...ELSEWHERE IN IOWA...


CITY           SKY/WX    TMP DP  RH WIND       PRES   REMARKS
DES MOINES     LGT SNOW  19  14  81 E3        30.26S
IOWA CITY      CLOUDY    22   7  52 S3        30.30S
FORT DODGE     CLOUDY    14   9  79 CALM      30.24F
MARSHALLTOWN   CLOUDY    18   9  68 CALM      30.25F
CEDAR RAPIDS   CLOUDY    21  10  62 S6        30.26F WCI  13
$$

...NORTHERN ILLINOIS...


CITY           SKY/WX    TMP DP  RH WIND       PRES   REMARKS
CHICAGO-OHARE  PTCLDY    17   5  59 W6        30.27S WCI   9
CHICAGO-MIDWAY PTCLDY    19   3  49 W8        30.28F WCI   9
MOLINE         CLOUDY    21   7  54 S3        30.29S
ROCKFORD       CLOUDY    16   6  65 CALM      30.29F
PEORIA         CLOUDY    24   6  46 S3        30.30S
$$

NOTE: "FAIR" INDICATES FEW OR NO CLOUDS BELOW 12,000 FEET WITH NO
SIGNIFICANT WEATHER AND/OR OBSTRUCTIONS TO VISIBILITY. WIND
SPEEDS ARE IN MILES-PER-HOUR.




USA.gov is the U.S. government's official web portal to all federal, state and local government web resources and services.